When you browse on this site, cookies collect data to enhance your experience and personalize the content and advertising you see.
Visit our Privacy Policy to learn more. By continuing to use the site, you agree to this use of cookies and data.
  • în România
  • Lista ţărilor
  • Pe 7 zile
  • Temperatura apei
  • Meteo pe hartă
  • Widget-uri
  • user-avatar
    Intrare

    Meteo pe oră la Ben-Gurion

    Astăzi, 3 Aprilie, Vineri

    Timp Temperatura Precipitaţii Vânt Presiune Umiditate
    00:00 +14°C° 0 mm 0 m/s 757 mmHg 74%
    01:00 +14°C° 0 mm 0 m/s 757 mmHg 74%
    02:00 +14°C° 0 mm 1 m/s 757 mmHg 72%
    03:00 +14°C° 0 mm 1 m/s 757 mmHg 70%
    04:00 +14°C° 0 mm 1 m/s 757 mmHg 68%
    05:00 +14°C° 0 mm 2 m/s 757 mmHg 66%
    06:00 +16°C° 0 mm 2 m/s 757 mmHg 59%
    07:00 +18°C° 0 mm 2 m/s 757 mmHg 52%
    08:00 +19°C° 0 mm 2 m/s 757 mmHg 46%
    09:00 +20°C° 0 mm 2 m/s 758 mmHg 44%
    10:00 +21°C° 0 mm 3 m/s 758 mmHg 43%
    11:00 +22°C° 0 mm 3 m/s 758 mmHg 42%
    12:00 +24°C° 0 mm 3 m/s 757 mmHg 41%
    13:00 +23°C° 0 mm 4 m/s 757 mmHg 41%
    14:00 +23°C° 0 mm 4 m/s 757 mmHg 41%
    15:00 +22°C° 0 mm 4 m/s 757 mmHg 45%
    16:00 +22°C° 0 mm 4 m/s 757 mmHg 48%
    17:00 +21°C° 0 mm 3 m/s 757 mmHg 52%
    18:00 +20°C° 0 mm 2 m/s 757 mmHg 55%
    19:00 +19°C° 0 mm 2 m/s 758 mmHg 57%
    20:00 +19°C° 0 mm 1 m/s 758 mmHg 60%
    21:00 +19°C° 0 mm 1 m/s 758 mmHg 59%
    22:00 +19°C° 0 mm 1 m/s 758 mmHg 58%
    23:00 +18°C° 0 mm 1 m/s 758 mmHg 57%

    Mâine, 4 Aprilie, Sâmbătă

    Timp Temperatura Precipitaţii Vânt Presiune Umiditate
    00:00 +18°C° 0 mm 1 m/s 758 mmHg 56%
    01:00 +18°C° 0 mm 1 m/s 758 mmHg 55%
    02:00 +17°C° 0 mm 2 m/s 757 mmHg 54%
    03:00 +17°C° 0 mm 2 m/s 758 mmHg 53%
    04:00 +17°C° 0 mm 2 m/s 758 mmHg 53%
    05:00 +17°C° 0 mm 2 m/s 758 mmHg 52%
    06:00 +19°C° 0 mm 2 m/s 758 mmHg 48%
    07:00 +21°C° 0 mm 2 m/s 758 mmHg 45%
    08:00 +24°C° 0 mm 2 m/s 758 mmHg 41%
    09:00 +25°C° 0 mm 2 m/s 758 mmHg 38%
    10:00 +27°C° 0 mm 3 m/s 757 mmHg 34%
    11:00 +28°C° 0 mm 3 m/s 757 mmHg 31%
    12:00 +29°C° 0 mm 3 m/s 756 mmHg 31%
    13:00 +29°C° 0 mm 4 m/s 756 mmHg 30%
    14:00 +30°C° 0 mm 4 m/s 755 mmHg 29%
    15:00 +29°C° 0 mm 4 m/s 755 mmHg 33%
    16:00 +28°C° 0 mm 4 m/s 755 mmHg 37%
    17:00 +28°C° 0 mm 4 m/s 754 mmHg 40%
    18:00 +27°C° 0 mm 4 m/s 754 mmHg 40%
    19:00 +26°C° 0 mm 4 m/s 754 mmHg 39%
    20:00 +23°C° 0 mm 4 m/s 754 mmHg 39%
    21:00 +25°C° 0 mm 5 m/s 754 mmHg 37%
    22:00 +24°C° 0 mm 6 m/s 754 mmHg 35%
    23:00 +26°C° 0 mm 7 m/s 754 mmHg 33%

    Poimâine, 5 Aprilie, Duminică

    Timp Temperatura Precipitaţii Vânt Presiune Umiditate
    00:00 +26°C° 0 mm 8 m/s 753 mmHg 32%
    01:00 +26°C° 0 mm 8 m/s 753 mmHg 31%
    02:00 +26°C° 0 mm 9 m/s 752 mmHg 30%
    03:00 +26°C° 0 mm 9 m/s 752 mmHg 29%
    04:00 +26°C° 0 mm 9 m/s 752 mmHg 29%
    05:00 +24°C° 0 mm 10 m/s 752 mmHg 28%
    06:00 +26°C° 0 mm 8 m/s 752 mmHg 30%
    07:00 +27°C° 0 mm 7 m/s 752 mmHg 31%
    08:00 +27°C° 0 mm 6 m/s 751 mmHg 32%
    09:00 +29°C° 0 mm 5 m/s 752 mmHg 29%
    10:00 +32°C° 0 mm 5 m/s 752 mmHg 26%
    11:00 +34°C° 0 mm 5 m/s 752 mmHg 23%
    12:00 +33°C° 0 mm 6 m/s 752 mmHg 26%
    13:00 +32°C° 0 mm 7 m/s 752 mmHg 29%
    14:00 +31°C° 0 mm 8 m/s 752 mmHg 33%
    15:00 +27°C° 0 mm 7 m/s 752 mmHg 43%
    16:00 +25°C° 0 mm 5 m/s 752 mmHg 54%
    17:00 +22°C° 0 mm 3 m/s 753 mmHg 65%
    18:00 +21°C° 0 mm 3 m/s 754 mmHg 70%
    19:00 +20°C° 0 mm 2 m/s 754 mmHg 75%
    20:00 +19°C° 0 mm 2 m/s 755 mmHg 81%
    21:00 +18°C° 0 mm 2 m/s 755 mmHg 83%
    22:00 +18°C° 0 mm 2 m/s 756 mmHg 85%
    23:00 +18°C° 0 mm 2 m/s 756 mmHg 87%

    6 Aprilie, Luni

    Timp Temperatura Precipitaţii Vânt Presiune Umiditate
    00:00 +18°C° 0 mm 2 m/s 756 mmHg 86%
    01:00 +18°C° 0 mm 2 m/s 755 mmHg 85%
    02:00 +18°C° 0 mm 2 m/s 755 mmHg 83%
    03:00 +18°C° 0 mm 2 m/s 755 mmHg 82%
    04:00 +18°C° 0 mm 2 m/s 755 mmHg 81%
    05:00 +17°C° 0 mm 2 m/s 756 mmHg 80%
    06:00 +18°C° 0 mm 2 m/s 756 mmHg 77%
    07:00 +18°C° 0 mm 2 m/s 756 mmHg 74%
    08:00 +18°C° 0 mm 2 m/s 756 mmHg 72%
    09:00 +19°C° 0 mm 3 m/s 756 mmHg 68%
    10:00 +20°C° 0 mm 3 m/s 756 mmHg 64%
    11:00 +21°C° 0 mm 4 m/s 756 mmHg 60%
    12:00 +21°C° 0 mm 4 m/s 756 mmHg 59%
    13:00 +21°C° 0 mm 4 m/s 756 mmHg 59%
    14:00 +21°C° 0 mm 5 m/s 755 mmHg 58%
    15:00 +20°C° 0 mm 4 m/s 756 mmHg 61%
    16:00 +19°C° 0 mm 4 m/s 756 mmHg 64%
    17:00 +19°C° 0 mm 4 m/s 756 mmHg 67%
    18:00 +18°C° 0 mm 3 m/s 756 mmHg 70%
    19:00 +17°C° 0 mm 2 m/s 756 mmHg 73%
    20:00 +18°C° 0 mm 1 m/s 757 mmHg 76%
    21:00 +16°C° 0 mm 1 m/s 757 mmHg 76%
    22:00 +16°C° 0 mm 1 m/s 757 mmHg 77%
    23:00 +16°C° 0 mm 1 m/s 757 mmHg 77%

    7 Aprilie, Marţi

    Timp Temperatura Precipitaţii Vânt Presiune Umiditate
    00:00 +16°C° 0 mm 1 m/s 756 mmHg 78%
    01:00 +15°C° 0 mm 1 m/s 756 mmHg 78%
    02:00 +15°C° 0 mm 1 m/s 756 mmHg 78%
    03:00 +15°C° 0 mm 1 m/s 756 mmHg 78%
    04:00 +15°C° 0 mm 1 m/s 756 mmHg 79%
    05:00 +15°C° 0 mm 2 m/s 756 mmHg 79%
    06:00 +16°C° 0 mm 2 m/s 756 mmHg 75%
    07:00 +16°C° 0 mm 2 m/s 756 mmHg 72%
    08:00 +17°C° 0 mm 2 m/s 756 mmHg 68%
    09:00 +18°C° 0 mm 2 m/s 756 mmHg 63%
    10:00 +19°C° 0 mm 3 m/s 756 mmHg 58%
    11:00 +20°C° 0 mm 3 m/s 756 mmHg 52%
    12:00 +20°C° 0 mm 4 m/s 756 mmHg 52%
    13:00 +21°C° 0 mm 5 m/s 755 mmHg 51%
    14:00 +21°C° 0 mm 5 m/s 755 mmHg 51%
    15:00 +20°C° 0 mm 5 m/s 755 mmHg 54%
    16:00 +19°C° 0 mm 4 m/s 755 mmHg 57%
    17:00 +19°C° 0 mm 4 m/s 755 mmHg 60%
    18:00 +18°C° 0 mm 3 m/s 755 mmHg 65%
    19:00 +17°C° 0 mm 2 m/s 755 mmHg 69%
    20:00 +16°C° 0 mm 1 m/s 756 mmHg 73%
    21:00 +16°C° 0 mm 1 m/s 756 mmHg 73%
    22:00 +16°C° 0 mm 1 m/s 756 mmHg 73%
    23:00 +14°C° 0 mm 0 m/s 756 mmHg 74%

    8 Aprilie, Miercuri

    Timp Temperatura Precipitaţii Vânt Presiune Umiditate
    00:00 +15°C° 0 mm 1 m/s 755 mmHg 74%
    01:00 +15°C° 0 mm 1 m/s 755 mmHg 75%
    02:00 +15°C° 0 mm 2 m/s 755 mmHg 76%
    03:00 +15°C° 0 mm 2 m/s 755 mmHg 77%
    04:00 +15°C° 0 mm 2 m/s 755 mmHg 77%
    05:00 +15°C° 0 mm 2 m/s 755 mmHg 78%
    06:00 +15°C° 0 mm 2 m/s 756 mmHg 77%
    07:00 +16°C° 0 mm 2 m/s 756 mmHg 76%
    08:00 +17°C° 0 mm 3 m/s 756 mmHg 75%
    09:00 +18°C° 0.1 mm 3 m/s 756 mmHg 70%
    10:00 +19°C° 0.1 mm 3 m/s 756 mmHg 66%
    11:00 +20°C° 0.1 mm 3 m/s 756 mmHg 62%
    12:00 +20°C° 0 mm 4 m/s 755 mmHg 62%
    13:00 +20°C° 0 mm 4 m/s 755 mmHg 62%
    14:00 +20°C° 0 mm 4 m/s 755 mmHg 62%
    15:00 +20°C° 0 mm 4 m/s 755 mmHg 64%
    16:00 +19°C° 0 mm 4 m/s 754 mmHg 66%
    17:00 +19°C° 0 mm 3 m/s 754 mmHg 68%
    18:00 +18°C° 0 mm 3 m/s 754 mmHg 71%
    19:00 +17°C° 0 mm 2 m/s 755 mmHg 74%
    20:00 +18°C° 0 mm 1 m/s 755 mmHg 77%
    21:00 +16°C° 0 mm 1 m/s 755 mmHg 78%
    22:00 +16°C° 0 mm 1 m/s 755 mmHg 79%
    23:00 +16°C° 0 mm 1 m/s 755 mmHg 79%
    Arată mai mult